Location: Unspecified
(51.0000°N, 12.0000°E)
Time: 05:18:47
(UTC+01:00)

Envisat - Visible Passes

Search period start: 21 November 2017 00:00
Search period end: 01 December 2017 00:00
Orbit: 764 x 766 km, 98.2° (Epoch: 20 November)

Date Brightness Start Highest point End Pass type
(mag) Time Alt. Az. Time Alt. Az. Time Alt. Az.
21 Nov 4.7 18:35:46 18° NNE 18:35:46 18° NNE 18:37:26 10° N visible
21 Nov 5.4 20:15:59 16° NNW 20:15:59 16° NNW 20:16:59 10° NNW visible
22 Nov 4.9 17:58:42 13° NNE 17:58:42 13° NNE 17:59:50 10° NNE visible
22 Nov 5.0 19:38:55 19° N 19:38:55 19° N 19:40:19 10° NNW visible
23 Nov 4.8 19:01:51 19° N 19:01:51 19° N 19:03:22 10° N visible
23 Nov 5.8 20:42:03 11° NNW 20:42:03 11° NNW 20:42:21 10° NNW visible
24 Nov 4.8 18:24:47 16° NNE 18:24:47 16° NNE 18:26:07 10° N visible
24 Nov 5.4 20:04:59 15° NNW 20:04:59 15° NNW 20:05:55 10° NNW visible
25 Nov 5.0 17:47:42 11° NNE 17:47:42 11° NNE 17:48:13 10° NNE visible
25 Nov 5.0 19:27:55 18° N 19:27:55 18° N 19:29:09 10° N visible
26 Nov 4.9 18:50:50 17° N 18:50:50 17° N 18:52:08 10° N visible
26 Nov 5.7 20:31:03 12° NNW 20:31:03 12° NNW 20:31:21 10° NNW visible
27 Nov 4.9 18:13:45 14° NNE 18:13:45 14° NNE 18:14:45 10° NNE visible
27 Nov 5.3 19:53:58 15° NNW 19:53:58 15° NNW 19:54:49 10° NNW visible
28 Nov 5.0 19:16:53 16° N 19:16:53 16° N 19:17:58 10° N visible
29 Nov 6.0 07:13:47 10° ENE 07:15:47 12° E 07:17:47 10° ESE visible
29 Nov 4.9 18:39:48 15° NNE 18:39:48 15° NNE 18:40:52 10° N visible
29 Nov 5.7 20:20:00 12° NNW 20:20:00 12° NNW 20:20:20 10° NNW visible
30 Nov 5.0 18:02:42 12° NNE 18:02:42 12° NNE 18:03:20 10° NNE visible
30 Nov 5.3 19:42:54 15° NNW 19:42:54 15° NNW 19:43:41 10° NNW visible
